WetterOnline ( https://www.wetteronline.de )

Wetter aktuell Hof

Aktuelles Wetter: Oschatz (152m)

6-stündlich | Neueste Meldungen
Ortszeit Temperatur Wetter
So, 20.06. 20:00 26.7° C bewölkt
So, 20.06. 14:00 30.5° C bedeckt
So, 20.06. 8:00 24.3° C wolkig
So, 20.06. 2:00 22.3° C wolkenlos
Sa, 19.06. 20:00 29.2° C bedeckt
Sa, 19.06. 14:00 31.8° C leicht bewölkt
Sa, 19.06. 8:00 23.1° C wolkenlos
Sa, 19.06. 2:00 18.6° C wolkenlos
Ortszeit Temperatur Wetter
So, 20.06. 22:00 22.6° C wolkig
So, 20.06. 21:30 24.3° C wolkig
So, 20.06. 21:20 24.3° C wolkig
So, 20.06. 21:10 25.2° C wolkig
So, 20.06. 21:00 26.2° C wolkig
So, 20.06. 20:50 26.2° C wolkig
So, 20.06. 20:30 26.8° C bewölkt
So, 20.06. 20:00 26.7° C bewölkt
Ortszeit Relative Feuchte Sichtweite
So, 20.06. 20:00 66% 55 km
So, 20.06. 14:00 52% 30 km
So, 20.06. 8:00 71% 30 km
So, 20.06. 2:00 83% 30 km
Sa, 19.06. 20:00 62% 30 km
Sa, 19.06. 14:00 47% 30 km
Sa, 19.06. 8:00 69% 30 km
Sa, 19.06. 2:00 84% 35 km
Ortszeit Relative Feuchte Sichtweite
So, 20.06. 22:00 79% 35 km
So, 20.06. 21:30 72% 40 km
So, 20.06. 21:20 72% -
So, 20.06. 21:10 66% -
So, 20.06. 21:00 62% 50 km
So, 20.06. 20:50 62% -
So, 20.06. 20:30 62% 45 km
So, 20.06. 20:00 66% 55 km
Ortszeit Niederschlagsmenge Niederschlagsart
So, 20.06. 20:00 0.1 l/m2 in 12 Std. Regen, Niederschlag
So, 20.06. 14:00 0.0 l/m2 in 6 Std. -
So, 20.06. 8:00 0.0 l/m2 in 12 Std. -
So, 20.06. 2:00 0.0 l/m2 in 6 Std. -
Sa, 19.06. 20:00 0.0 l/m2 in 12 Std. -
Sa, 19.06. 14:00 0.0 l/m2 in 6 Std. -
Sa, 19.06. 8:00 0.0 l/m2 in 12 Std. -
Sa, 19.06. 2:00 0.0 l/m2 in 6 Std. -
Ortszeit Niederschlagsmenge Niederschlagsart
So, 20.06. 22:00 0.0 l/m2 in 1 Std. -
So, 20.06. 21:30 0.0 l/m2 in 1 Std. -
So, 20.06. 21:20 keine Meldung -
So, 20.06. 21:10 keine Meldung -
So, 20.06. 21:00 0.0 l/m2 in 1 Std. -
So, 20.06. 20:50 keine Meldung -
So, 20.06. 20:30 0.0 l/m2 in 1 Std. -
So, 20.06. 20:00 0.0 l/m2 in 1 Std. Regen, Niederschlag
Ortszeit Stärke Spitze Richtung
km/h Bft. km/h Grad Sektor
So, 20.06. 20:00 4 1 25 210° SW
So, 20.06. 14:00 13 3 33 240° SW
So, 20.06. 8:00 7 2 11 170° S
So, 20.06. 2:00 6 1 13 210° SW
Sa, 19.06. 20:00 6 1 28 290° W
Sa, 19.06. 14:00 13 3 26 280° W
Sa, 19.06. 8:00 6 1 9 160° S
Sa, 19.06. 2:00 4 1 14 110° O
Ortszeit Stärke Spitze Richtung
km/h Bft. km/h Grad Sektor
So, 20.06. 22:00 4 1 7 330° NW
So, 20.06. 21:30 0 0 4 - -
So, 20.06. 21:20 2 1 - 330° NW
So, 20.06. 21:10 0 0 - 50° NO
So, 20.06. 21:00 2 1 4 110° O
So, 20.06. 20:50 2 1 - 110° O
So, 20.06. 20:30 0 0 4 - -
So, 20.06. 20:00 4 1 14 210° SW
Ortszeit Untergrenze Bedeckung Gattung
total tief tief mittel hoch
So, 20.06. 20:00 3900 m 8/8 6/8 - - -
So, 20.06. 14:00 4800 m 8/8 8/8 - - -
So, 20.06. 8:00 7200 m 7/8 0/8 - - -
So, 20.06. 2:00 - 0/8 0/8 - - -
Sa, 19.06. 20:00 3900 m 8/8 8/8 - - -
Sa, 19.06. 14:00 9000 m 3/8 0/8 - - -
Sa, 19.06. 8:00 - 0/8 0/8 - - -
Sa, 19.06. 2:00 - 0/8 0/8 - - -
Ortszeit Bedeckungsgrad in Achtel und Wolkenuntergrenze
So, 20.06. 22:00 3(6600m) 7(10500m) 7(12000m)
So, 20.06. 21:30 2(6600m) 7(10500m)
So, 20.06. 21:20 2(6600m) 7(10500m)
So, 20.06. 21:10 3(6600m) 8(9000m)
So, 20.06. 21:00 1(6600m) 7(9000m) 8(10500m)
So, 20.06. 20:50 1(6600m) 7(9000m) 8(10500m)
So, 20.06. 20:30 4(6600m) 5(9000m) 8(9000m)
So, 20.06. 20:00 5(3900m) 6(5700m) 8(9000m)
Ortszeit Luftdruck NN (hPa) Tendenz (hPa in 3 Std.)
So, 20.06. 20:00 1008 - 0,3
So, 20.06. 14:00 1009 - 0,7
So, 20.06. 8:00 1010 - 0,8
So, 20.06. 2:00 1011 - 0,6
Sa, 19.06. 20:00 1012 - 0,2
Sa, 19.06. 14:00 1013 - 0,5
Sa, 19.06. 8:00 1014 + 0,5
Sa, 19.06. 2:00 1014 + 0,1
Ortszeit Luftdruck NN (hPa) Tendenz (hPa in 3 Std.)
So, 20.06. 22:00 1008 - 0,6
So, 20.06. 21:30 1008 - 0,7
So, 20.06. 21:20 1008 keine Meldung
So, 20.06. 21:10 1007 keine Meldung
So, 20.06. 21:00 1008 - 0,8
So, 20.06. 20:50 1008 keine Meldung
So, 20.06. 20:30 1008 - 0,5
So, 20.06. 20:00 1008 - 0,3
Ortszeit Schneehöhe (cm)
So, 20.06. 20:00 -
So, 20.06. 14:00 -
So, 20.06. 8:00 -
So, 20.06. 2:00 -
Sa, 19.06. 20:00 -
Sa, 19.06. 14:00 -
Sa, 19.06. 8:00 -
Sa, 19.06. 2:00 -
Ortszeit Schneehöhe (cm)
So, 20.06. 22:00 -
So, 20.06. 21:30 -
So, 20.06. 21:20 -
So, 20.06. 21:10 -
So, 20.06. 21:00 -
So, 20.06. 20:50 -
So, 20.06. 20:30 -
So, 20.06. 20:00 -
Link zu dieser Seite / Seite empfehlen

Das Wetter in ...